Rochester, NY

12:08 AM EDT on June 25, 2017 (GMT -0400)
Greater Rochester International

Weather History for KROC - April, 2013

Change the Weather History Date:

Sunday, April 7, 2013

  Actual Average Record
Temperature  
Mean Temperature 58 °F 43 °F  
Max Temperature 72 °F 52 °F 79 °F (1991)
Min Temperature 43 °F 34 °F 13 °F (1982)
Degree Days  
Heating Degree Days 7 22  
Month to date heating degree days 187 164  
Since 1 July heating degree days 5466 5902  
Cooling Degree Days 0 0  
Month to date cooling degree days 0 0  
Year to date cooling degree days 0 0  
Growing Degree Days 6 (Base 50)    
Moisture  
Dew Point 30 °F    
Average Humidity 45    
Maximum Humidity 62    
Minimum Humidity 28    
Precipitation  
Precipitation T in 0.09 in 1.00 in (1893)
Month to date precipitation 0.12 0.65  
Year to date precipitation 5.28 7.51  
Snow  
Snow 0.00 in 0.20 in 4.90 in (1886)
Month to date snowfall 2.3 1.6  
Since 1 July snowfall 78.1 96.8  
Snow Depth 0.00 in    
Sea Level Pressure  
Sea Level Pressure 29.87 in    
Wind  
Wind Speed 17 mph (SW)    
Max Wind Speed 36 mph    
Max Gust Speed 46 mph    
Visibility 10 miles    
Events Rain    
T = Trace of Precipitation, MM = Missing Value Source: NWS Daily Summary

Daily Weather History Graph

Daily Weather History Graph

Search for Another Location

Airport or City:

Trip Planner

Search our weather history database for the weather conditions in past years. The results will help you decide how hot, cold, wet, or windy it might be!

Date:

Astronomy

Apr. 07, 2013 Rise Set
Actual Time 6:41 AM EDT 7:44 PM EDT
Civil Twilight 6:12 AM EDT 8:13 PM EDT
Nautical Twilight 5:38 AM EDT 8:48 PM EDT
Astronomical Twilight 5:01 AM EDT 9:24 PM EDT
Moon 5:02 AM EDT (4/7) 5:11 PM EDT (4/7)
Length of Visible Light 14h 00m
Length of Day
13h 02m
Waning Crescent, 8% of the Moon is Illuminated
Apr 7
Waning Crescent
Apr 10
New
Apr 18
First Quarter
Apr 25
Full
May 2
Last Quarter

Hourly Weather History & Observations

Time (EDT) Temp. Windchill Dew Point Humidity Pressure Visibility Wind Dir Wind Speed Gust Speed Precip Events Conditions
12:54 AM 44.1 °F 39.5 °F 18.0 °F 35% 30.03 in 10.0 mi SSE 8.1 mph - N/A   Overcast
1:54 AM 48.0 °F - 18.0 °F 30% 29.98 in 10.0 mi South 9.2 mph - N/A   Overcast
2:54 AM 50.0 °F - 19.0 °F 29% 29.95 in 10.0 mi South 15.0 mph 25.3 mph 0.00 in Rain Light Rain
3:54 AM 50.0 °F - 19.0 °F 29% 29.91 in 10.0 mi South 13.8 mph 20.7 mph 0.00 in   Overcast
4:54 AM 50.0 °F - 19.9 °F 31% 29.90 in 10.0 mi SSE 10.4 mph - N/A   Overcast
5:54 AM 51.1 °F - 21.0 °F 31% 29.87 in 10.0 mi South 13.8 mph 21.9 mph N/A   Mostly Cloudy
6:54 AM 51.1 °F - 21.9 °F 32% 29.86 in 10.0 mi South 15.0 mph 24.2 mph N/A   Overcast
7:54 AM 52.0 °F - 24.1 °F 34% 29.83 in 10.0 mi SSW 23.0 mph 29.9 mph N/A   Overcast
8:54 AM 53.1 °F - 25.0 °F 34% 29.81 in 10.0 mi South 21.9 mph 32.2 mph N/A   Mostly Cloudy
9:54 AM 57.9 °F - 28.0 °F 32% 29.78 in 10.0 mi SSW 17.3 mph 25.3 mph N/A   Mostly Cloudy
10:54 AM 61.0 °F - 30.0 °F 31% 29.76 in 10.0 mi SSW 19.6 mph 29.9 mph N/A   Overcast
11:54 AM 63.0 °F - 32.0 °F 31% 29.75 in 10.0 mi SSW 23.0 mph 35.7 mph N/A   Mostly Cloudy
12:54 PM 69.1 °F - 35.1 °F 29% 29.73 in 10.0 mi SSW 15.0 mph 28.8 mph N/A   Mostly Cloudy
1:54 PM 71.1 °F - 37.9 °F 30% 29.70 in 10.0 mi SW 32.2 mph 43.7 mph N/A   Scattered Clouds
2:54 PM 68.0 °F - 42.1 °F 39% 29.73 in 10.0 mi West 26.5 mph 36.8 mph N/A   Scattered Clouds
3:54 PM 66.9 °F - 43.0 °F 42% 29.76 in 10.0 mi West 24.2 mph 40.3 mph N/A   Partly Cloudy
4:54 PM 66.0 °F - 41.0 °F 40% 29.79 in 10.0 mi West 28.8 mph 43.7 mph N/A   Scattered Clouds
5:42 PM 62.6 °F - 41.0 °F 45% 29.81 in 10.0 mi NW 17.3 mph - N/A   Partly Cloudy
5:54 PM 60.1 °F - 39.9 °F 47% 29.83 in 10.0 mi NNW 17.3 mph 27.6 mph N/A   Partly Cloudy
6:54 PM 55.0 °F - 37.9 °F 53% 29.88 in 10.0 mi WNW 16.1 mph 24.2 mph N/A   Partly Cloudy
7:54 PM 51.1 °F - 36.0 °F 56% 29.93 in 10.0 mi WNW 15.0 mph - N/A   Partly Cloudy
8:54 PM 48.9 °F - 35.1 °F 59% 29.98 in 10.0 mi WNW 6.9 mph - N/A   Scattered Clouds
9:54 PM 46.9 °F - 33.1 °F 59% 30.02 in 10.0 mi NW 16.1 mph 19.6 mph N/A   Overcast
10:54 PM 45.0 °F 39.7 °F 32.0 °F 60% 30.04 in 10.0 mi WNW 10.4 mph - N/A   Overcast
11:54 PM 44.1 °F 39.0 °F 32.0 °F 63% 30.05 in 10.0 mi NW 9.2 mph - N/A   Overcast